Time,TemperatureF,DewpointF,PressureIn,WindDirection,WindDirectionDegrees,WindSpeedMPH,WindSpeedGustMPH,Humidity,HourlyPrecipIn,Conditions,Clouds,dailyrainin,SolarRadiationWatts/m^2,SoftwareType,DateUTC
2013-09-29 00:22:00,45.0,13.0,-100.00,ESE,105,8.0,13.0,27,-99.99,,,-99.99,0.000000,,2013-09-29 07:22:00,
2013-09-29 00:30:00,45.0,13.0,-100.00,ESE,106,6.0,10.0,27,-99.99,,,-99.99,0.000000,,2013-09-29 07:30:00,
2013-09-29 01:22:00,45.0,13.0,-100.00,ESE,106,6.0,10.0,27,-99.99,,,-99.99,0.000000,,2013-09-29 08:22:00,
2013-09-29 01:30:00,45.0,18.0,-100.00,South,173,4.0,11.0,33,-99.99,,,-99.99,0.000000,,2013-09-29 08:30:00,
2013-09-29 02:22:00,45.0,18.0,-100.00,South,173,4.0,11.0,33,-99.99,,,-99.99,0.000000,,2013-09-29 09:22:00,
2013-09-29 02:30:00,44.0,16.0,-100.00,SSE,149,4.0,10.0,32,-99.99,,,-99.99,0.000000,,2013-09-29 09:30:00,
2013-09-29 03:23:00,44.0,16.0,-100.00,SSE,149,4.0,10.0,32,-99.99,,,-99.99,0.000000,,2013-09-29 10:23:00,
2013-09-29 03:30:00,44.0,19.0,-100.00,SE,140,5.0,12.0,36,-99.99,,,-99.99,0.000000,,2013-09-29 10:30:00,
2013-09-29 04:22:00,44.0,19.0,-100.00,SE,140,5.0,12.0,36,-99.99,,,-99.99,0.000000,,2013-09-29 11:22:00,
2013-09-29 04:30:00,43.0,16.0,-100.00,SSE,153,4.0,14.0,33,-99.99,,,-99.99,0.000000,,2013-09-29 11:30:00,
2013-09-29 05:21:00,43.0,16.0,-100.00,SSE,153,4.0,14.0,33,-99.99,,,-99.99,0.000000,,2013-09-29 12:21:00,
2013-09-29 05:30:00,42.0,15.0,-100.00,SSE,166,4.0,11.0,33,-99.99,,,-99.99,0.000000,,2013-09-29 12:30:00,
2013-09-29 06:22:00,42.0,15.0,-100.00,SSE,166,4.0,11.0,33,-99.99,,,-99.99,0.000000,,2013-09-29 13:22:00,
2013-09-29 06:30:00,42.0,23.0,-100.00,South,175,5.0,13.0,46,-99.99,,,-99.99,0.000000,,2013-09-29 13:30:00,
2013-09-29 07:21:00,42.0,23.0,-100.00,South,175,5.0,13.0,46,-99.99,,,-99.99,0.000000,,2013-09-29 14:21:00,
2013-09-29 07:30:00,41.0,20.0,-100.00,South,173,4.0,10.0,42,-99.99,,,-99.99,15.000000,,2013-09-29 14:30:00,
2013-09-29 08:22:00,41.0,20.0,-100.00,South,173,4.0,10.0,42,-99.99,,,-99.99,15.000000,,2013-09-29 15:22:00,
2013-09-29 08:30:00,42.0,22.0,-100.00,SE,142,4.0,12.0,45,-99.99,,,-99.99,36.000000,,2013-09-29 15:30:00,
2013-09-29 09:24:00,42.0,22.0,-100.00,SE,142,4.0,12.0,45,-99.99,,,-99.99,36.000000,,2013-09-29 16:24:00,
2013-09-29 09:30:00,45.0,28.0,-100.00,SSE,151,5.0,11.0,51,-99.99,,,-99.99,114.000000,,2013-09-29 16:30:00,
2013-09-29 10:24:00,45.0,28.0,-100.00,SSE,151,5.0,11.0,51,-99.99,,,-99.99,114.000000,,2013-09-29 17:24:00,
2013-09-29 10:30:00,48.0,30.0,-100.00,SSE,152,6.0,19.0,50,-99.99,,,-99.99,406.000000,,2013-09-29 17:30:00,
2013-09-29 11:22:00,48.0,30.0,-100.00,SSE,152,6.0,19.0,50,-99.99,,,-99.99,406.000000,,2013-09-29 18:22:00,
2013-09-29 12:30:00,52.0,30.0,-100.00,SSE,158,5.0,12.0,42,-99.99,,,-99.99,563.000000,,2013-09-29 19:30:00,
2013-09-29 13:22:00,52.0,30.0,-100.00,SSE,158,5.0,12.0,42,-99.99,,,-99.99,563.000000,,2013-09-29 20:22:00,
2013-09-29 13:30:00,52.0,29.0,-100.00,SSE,165,6.0,15.0,42,-99.99,,,-99.99,553.000000,,2013-09-29 20:30:00,
2013-09-29 14:21:00,52.0,29.0,-100.00,SSE,165,6.0,15.0,42,-99.99,,,-99.99,553.000000,,2013-09-29 21:21:00,
2013-09-29 15:30:00,54.0,30.0,-100.00,SSE,155,6.0,16.0,40,-99.99,,,-99.99,417.000000,,2013-09-29 22:30:00,
2013-09-29 16:23:00,54.0,30.0,-100.00,SSE,155,6.0,16.0,40,-99.99,,,-99.99,417.000000,,2013-09-29 23:23:00,
2013-09-29 16:30:00,52.0,26.0,-100.00,SSE,151,5.0,14.0,36,-99.99,,,-99.99,243.000000,,2013-09-29 23:30:00,
2013-09-29 17:22:00,52.0,26.0,-100.00,SSE,151,5.0,14.0,36,-99.99,,,-99.99,243.000000,,2013-09-30 00:22:00,
2013-09-29 17:30:00,49.0,25.0,-100.00,SSE,156,5.0,13.0,39,-99.99,,,-99.99,36.000000,,2013-09-30 00:30:00,
2013-09-29 18:22:00,49.0,25.0,-100.00,SSE,156,5.0,13.0,39,-99.99,,,-99.99,36.000000,,2013-09-30 01:22:00,
2013-09-29 18:30:00,46.0,27.0,-100.00,SE,134,5.0,12.0,47,-99.99,,,-99.99,8.000000,,2013-09-30 01:30:00,
2013-09-29 19:22:00,46.0,27.0,-100.00,SE,134,5.0,12.0,47,-99.99,,,-99.99,8.000000,,2013-09-30 02:22:00,
2013-09-29 19:30:00,45.0,31.0,-100.00,ESE,120,5.0,22.0,59,-99.99,,,-99.99,0.000000,,2013-09-30 02:30:00,
2013-09-29 20:22:00,45.0,31.0,-100.00,ESE,120,5.0,22.0,59,-99.99,,,-99.99,0.000000,,2013-09-30 03:22:00,
2013-09-29 20:30:00,44.0,30.0,-100.00,East,90,9.0,22.0,58,-99.99,,,-99.99,0.000000,,2013-09-30 03:30:00,
2013-09-29 21:24:00,44.0,30.0,-100.00,East,90,9.0,22.0,58,-99.99,,,-99.99,0.000000,,2013-09-30 04:24:00,
2013-09-29 21:30:00,43.0,30.0,-100.00,East,94,7.0,15.0,60,-99.99,,,-99.99,0.000000,,2013-09-30 04:30:00,
2013-09-29 22:23:00,43.0,30.0,-100.00,East,94,7.0,15.0,60,-99.99,,,-99.99,0.000000,,2013-09-30 05:23:00,
2013-09-29 22:30:00,42.0,32.0,-100.00,East,98,6.0,12.0,66,-99.99,,,-99.99,0.000000,,2013-09-30 05:30:00,
2013-09-29 23:21:00,42.0,32.0,-100.00,East,98,6.0,12.0,66,-99.99,,,-99.99,0.000000,,2013-09-30 06:21:00,
2013-09-29 23:30:00,43.0,31.0,-100.00,East,85,10.0,16.0,64,-99.99,,,-99.99,0.000000,,2013-09-30 06:30:00,